BREEZE-M R/B, 32709

Orbit data source: Space-Track

BREEZE-M R/B, 32709 is space debris in HEO originally from a launch on Fri, 14 Mar 2008 UTC launched from the Tyuratam Missile And Space Complex (TTMTR). Debris objects in space refer to the collection of defunct objects orbiting the Earth. Examples of debris include non-operational satellites, rocket bodies, and fragments generated from explosions, collisions, or faulty payload assembly.

Loading next visibility...
Identifier
32709, 2008-011B
Orbit
HEO
Country
Flag of CISCIS
Related business
Manufacturer
Khrunichev
Mission
Spacecraft
Bus & Motor
BRIZ, Unknown motor
Mass
~2,600 kg wet, 1,600 kg dry
Launch date (UTC)
2008-03-14 (18 years ago)
Launch vehicle
Unknown
Launch site
Tyuratam Missile And Space Complex (TTMTR)
Object type
Payload
Rocket body
Debris
Shape & HBR
Cyl, 2.0 m
Radar Cross Section
15.135 m², Medium (>0.1 m² and < 1m²)

Expand to show TLE details & history
Last TLE update: 3 months ago

TLE from 3 months ago
0 BREEZE-M R/B
1 32709U 08011B   26091.95920100 -.00000925  00000-0 -44403-2 0  9990
2 32709  49.3374 337.6132 6513507 241.9231  38.8530  3.09678068143874
Epoch: 2026-04-01T23:01Z
TLE epoch observation values (Epoch: 2026-04-01T23:01:14.966Z)
Latitude
0.00005°
Longitude
162.0239°
Altitude
10,158.857 km
Speed
5.307 km/s
True Right ascension
22h 30m 36s
True Declination
0° 00' 00"
Sunlit
Object was in daylight at epoch
Visualization orbit readout
Latitude
Unknown
Longitude
Unknown
Altitude
Unknown
Speed
Unknown
Apparent Right ascension
Unknown
Apparent Declination
Unknown
Sunlit
N/A
Visualization observer readout
Local Sidereal Time
23:07:53
Azimuth
Unknown
Elevation
Unknown
Doppler factor
Unknown
Orbital elements
Apogee altitude
26,455.295 km
Perigee altitude
553.978 km
Semi-major axis
19,882.774 km
Eccentricity
0.65135
Inclination
49.3374°
RAAN
337.6132°
Arg. of periapsis
241.9231°
True anomaly
118.06337°
Mean anomaly
38.853°
Eccentric anomaly
74.88084°
Mean motion
0.77415 °/min
Orbital period
465.02 mins
BSTAR
-0.0044403
Loading maneuver chart data...
Computing Atmospheric mass density...
Loading historical data...
Loading historical data...
Loading historical data...
Loading historical data...
Loading historical data...
Loading historical data...
Loading historical data...

Documentation

Showing up to 5 results
|